ONEWEB-0239 (48802 NORAD) Tracking and Keplerian Element Data

This shows tracking and keplerian element data for the satellite.

Feedback or suggestion? Click here.




ElementValue
Catalog48802
NameONEWEB-0239
Epoch Orbit352
Epoch Day214.91667824
Epoch Year2021
RAAN254.8828
Inclination87.6014
Eccentricity0.0013372
Argument of Perigee49.9431
Mean Anonmoly308.712
Mean Motion14.3045085
Decay Rate-0.0143553
L11 48802U 21045AM 21214.91667824 -.01435530 00000-0 -58991+0 0 9991
L22 48802 87.6014 254.8828 0013372 49.9431 308.7120 14.30450850 3524

Live tracking and technical data element details for ONEWEB-0239 (NORAD 48802). ONEWEB-0239 can be tracked NOW for your location showing map with azimuth and elevation plus other details from your city location.

Track the satellite on the map from your city or location and see movement details for azimuth, elevation, latitude, longitude, range, height, and movement on the map or in text.







IsCatalogInMostPopularTable: catalog: 48802, numindb: 22
Update: records affected: 1



GetName: 48802 ONEWEB-0239

Hit Count: updated at: Tue, 03 Aug 2021 23:05:19 GMT